Location: ????????
(41.4375°N, 22.6433°E)
Time: 12:23:49
(UTC+00:00)

Daily predictions for brighter satellites

Satellite Brightness Start Highest point End
(mag) Time Altitude Azimuth Time Altitude Azimuth Time Altitude Azimuth
Sich 1 3.0 15:27:55 10° N 15:32:19 88° E 15:36:37 10° S
Cosmos 482 Debris 4.1 15:31:13 10° NNW 15:32:35 18° NNE 15:34:03 10° E
Cosmos 1151 Rocket 3.3 15:29:52 10° SSE 15:33:56 46° E 15:38:02 10° NNE
Radarsat Rocket 4.1 15:30:45 10° SSE 15:36:50 76° ENE 15:43:39 10° NNW
Cosmos 1470 Rocket 4.4 15:33:12 10° NNE 15:36:55 27° ENE 15:40:37 10° SE
CZ-4C R/B 3.4 15:34:58 10° N 15:38:36 71° WNW 15:42:10 10° SSW
SL-8 Rocket 4.1 15:32:30 10° N 15:38:40 58° E 15:44:51 10° SSE
CZ-4B DEB 4.4 15:34:22 10° S 15:39:51 79° WSW 15:45:20 10° NNW
Cosmos 2341 Rocket 4.0 15:33:40 10° N 15:40:00 78° E 15:46:22 10° S
USA 281 4.4 15:37:25 10° E 15:41:44 19° NE 15:46:04 10° N
Cosmos 1515 Rocket 4.5 15:38:01 10° SSE 15:41:45 28° E 15:45:31 10° NNE
Cosmos 2285 Rocket 4.0 15:43:57 10° NNW 15:50:21 75° ENE 15:56:40 10° SSE
CORIOLIS 4.2 15:45:05 10° SSE 15:50:24 63° ENE 15:55:48 10° N
COSMO-SKYMED 1 3.7 15:46:57 10° NE 15:50:29 24° E 15:53:59 10° SSE
USA 267 4.4 15:46:49 10° ENE 15:51:53 25° NNE 15:57:00 10° NW
USA 81 4.1 15:47:03 10° N 15:52:17 62° E 15:57:31 10° SSE
Cosmos 2228 Rocket 4.5 15:50:53 10° SE 15:54:05 19° E 15:56:56 11° NE
X-37B 0.6 15:51:39 10° WSW 15:54:50 74° NNW 15:57:12 16° ENE
H-2A R/B 3.6 15:54:40 13° ENE 15:55:06 13° ENE 15:57:21 10° NE
BREEZE-M TANK 3.7 15:49:58 10° WNW 15:55:16 47° SW 15:58:26 10° SE
Cosmos 1689 Rocket 4.2 15:57:04 12° ESE 15:57:04 12° ESE 15:57:51 10° ESE
Meteor 1-4 Rocket 2.5 15:55:02 10° S 15:58:34 59° E 16:02:05 10° NNE
Cosmos 1812 4.1 15:57:37 10° SE 16:00:20 19° E 16:01:27 17° ENE
Cosmos 1328 Rocket 3.5 15:57:19 10° S 16:01:37 84° E 16:05:59 10° N
Cosmos 2181 Rocket 4.1 15:55:13 10° S 16:01:38 90° SSE 16:08:01 10° N
Cosmos 1939 Rocket 3.5 15:58:31 10° SE 16:01:56 30° ENE 16:05:24 10° N
CZ-4 R/B 3.1 16:05:25 15° NE 16:05:25 15° NE 16:06:47 10° NNE
Meteor 1-20 Rocket 4.4 15:58:33 10° N 16:04:26 86° W 16:10:13 10° S
Cosmos 2237 Rocket 4.4 16:01:59 10° W 16:05:58 19° NW 16:09:59 10° N
NOAA 11 4.1 16:00:47 10° SSE 16:06:09 66° ENE 16:11:33 10° N
Cosmos 1933 Rocket 4.0 16:02:52 10° N 16:07:05 39° ENE 16:11:15 10° SSE
CZ-4B R/B 3.3 16:02:00 10° S 16:07:20 78° WSW 16:12:39 10° NNW
Cosmos 1666 Rocket 4.2 16:03:45 10° NNW 16:08:07 59° W 16:12:29 10° S
Meteor 1-26 Rocket 4.4 16:03:41 10° S 16:09:43 86° E 16:15:45 10° N
Cosmos 1603 3.9 16:04:39 10° S 16:10:03 49° ESE 16:15:01 12° NE
Cosmos 44 4.4 16:05:07 10° NW 16:10:20 54° WSW 16:15:35 10° SSE
H-2A R/B 4.0 16:06:22 10° S 16:10:22 40° W 16:14:17 10° NNW
CZ-3B R/B 1.7 16:07:05 10° SSW 16:10:41 38° SE 16:11:30 27° E
Lacrosse 4 Rocket 3.4 16:09:32 10° SE 16:10:38 12° ESE 16:10:38 12° ESE
Cosmos 1602 3.6 16:07:44 10° N 16:11:39 68° E 16:15:29 10° SSE
SL-24 R/B 4.5 16:09:35 17° NE 16:11:52 30° E 16:15:07 10° SSE
Cosmos 1943 3.5 16:08:09 10° S 16:13:30 46° ESE 16:18:06 14° NE
Cosmos 1538 Rocket 4.0 16:11:46 10° SSW 16:17:08 87° ESE 16:22:33 10° NNE
Cosmos 2369 Rocket 2.2 16:12:16 10° NNW 16:17:54 58° ENE 16:23:26 10° SE
CENTAUR R/B 3.4 16:13:28 10° SSE 16:18:07 26° ESE 16:20:30 21° ENE
CZ-2D R/B 3.9 16:15:55 10° SE 16:19:21 33° ENE 16:22:50 10° N
Cosmos 1943 Rocket 2.2 16:13:52 10° NNW 16:19:27 85° WSW 16:25:03 10° SSE
Meteor 1-14 Rocket 4.3 16:13:50 10° N 16:19:48 67° ENE 16:25:44 10° SSE
H-2A R/B 3.6 16:18:32 10° N 16:22:24 36° WNW 16:26:21 10° SW
Okean O Rocket 2.3 16:19:38 10° S 16:23:54 55° W 16:28:14 10° NNW
Okean-O 3.3 16:21:39 10° SE 16:25:30 30° ENE 16:29:22 10° N
Cosmos 1782 3.0 16:21:34 10° SSW 16:25:30 71° W 16:29:29 10° N
Cosmos 1461 4.3 16:22:13 10° SSE 16:25:51 24° ESE 16:26:18 23° ESE
NOSS 3-2 (C) 4.2 16:21:16 10° SSE 16:25:53 28° ESE 16:27:40 24° E
SL-08 R/B 4.4 16:22:27 10° N 16:28:35 70° E 16:34:39 10° SSE
DEBRIS 4.4 16:17:47 10° WNW 16:31:44 47° N 16:34:05 27° ENE
ISS -1.7 16:30:55 10° NNW 16:32:58 16° N 16:32:58 16° N
Meteor 1-27 Rocket 4.4 16:32:46 10° SSE 16:37:28 30° E 16:37:40 30° E
SKYMED 2 3.4 16:34:31 11° NNE 16:38:44 81° ESE 16:43:04 10° S
ERS-2 2.5 16:36:10 11° N 16:39:37 65° WNW 16:43:14 10° SSW
Meteor 1-10 Rocket 4.2 16:36:14 10° S 16:41:42 55° E 16:46:16 15° NNE
Lacrosse 5 rocket 3.5 16:47:51 10° NW 16:49:16 12° NNW 16:50:15 11° N
NOSS 3-2 (A) 3.2 16:45:25 10° SSW 16:50:56 76° ESE 16:54:01 31° NE
CZ-4B R/B 3.5 16:56:26 10° NNW 16:59:01 24° WNW 17:01:36 10° SW
SL-16 R/B 4.4 16:54:58 10° W 16:59:04 20° NW 17:03:12 10° N
Cosmos 2239 Rocket 4.3 16:54:51 10° N 17:01:02 73° E 17:07:13 10° SSE
USA 215 3.2 16:59:21 34° NE 17:02:30 83° SE 17:09:02 10° SW
YAOGAN 1 3.9 17:09:19 27° N 17:09:19 27° N 17:11:19 10° N
Cosmos 1500 3.8 17:04:10 10° NNW 17:07:55 56° W 17:11:41 10° S
USA 238 DEB 3.5 17:03:36 10° SSW 17:10:10 89° ESE 17:13:06 37° NE
USA 238 3.5 17:03:41 10° SSW 17:10:16 88° ESE 17:13:10 37° NE
Cosmos 1656 Rocket 3.5 17:07:45 10° NNW 17:13:24 90° ENE 17:17:20 20° SSE
NOAA 15 4.5 17:10:44 10° SSE 17:16:01 87° ENE 17:21:20 10° NNW
MOS 1 Rocket 3.5 17:13:25 28° NNE 17:16:25 90° NW 17:21:46 10° SSW
CZ-2C R/B 3.0 17:14:01 10° S 17:19:03 76° WSW 17:23:53 10° NNW
Cosmos 158 Rocket 4.2 17:14:17 10° SSW 17:19:11 61° WNW 17:20:54 38° N
Cosmos 1934 Rocket 3.8 17:17:36 10° N 17:24:00 75° E 17:30:16 10° SSE
USA 281 3.1 17:18:47 10° SSE 17:25:22 86° ENE 17:31:58 10° NNW
CSL-04 Debris 4.4 17:27:30 57° N 17:27:30 57° N 17:31:55 10° N
COSMO-SKYMED 1 4.3 17:23:06 11° N 17:26:38 30° WNW 17:30:25 10° SW
Cosmos 1238 Rocket 3.7 17:22:53 10° NNW 17:26:59 58° W 17:31:57 10° S
X-37B 3.5 17:28:39 10° WNW 17:29:28 16° WNW 17:29:28 16° WNW
H-2A R/B 2.6 17:35:17 49° NNW 17:35:17 49° NNW 17:39:00 10° NNW
USA 267 3.5 17:34:11 49° NNE 17:34:11 49° NNE 17:40:12 10° NW
CZ-4 R/B 3.7 17:41:27 18° NW 17:41:27 18° NW 17:42:43 10° NNW
Meteor 1-11 Rocket 4.0 17:37:15 10° NNW 17:43:01 69° W 17:48:53 10° S
NOSS 3-3 (A) 4.5 17:37:23 10° NW 17:45:04 86° WSW 17:47:58 46° SSE
NOSS 3-3 (C) 4.5 17:37:27 10° NW 17:45:10 87° WSW 17:47:58 47° SSE
Cosmos 44 Rocket 4.0 17:40:56 10° NW 17:45:08 54° WNW 17:45:08 54° WNW
Lacrosse 4 Rocket 3.5 17:45:25 10° SW 17:46:59 22° SW 17:46:59 22° SW
Cosmos 1680 Rocket 4.5 17:44:29 10° SW 17:49:30 44° WNW 17:50:18 41° NW
CENTAUR R/B 3.0 18:02:24 10° SW 18:07:45 54° WNW 18:07:45 54° WNW
NOSS 3-2 (C) 4.3 18:10:55 10° WSW 18:15:09 42° W 18:15:09 42° W
